Terminal Aerodrome Forecast
Issued by NWS North Platte, NE

Home | Current Version | Previous Version | Graphics & Text | Print | Product List | Glossary On
Versions: 1 2 3 4 5 6 7 8 9 10 11 12 13 14 15 16 17 18 19 20 21 22 23
000
FTUS43 KLBF 200900 AAA
TAFVTN
TAF AMD
KVTN 200936Z 2010/2106 19008KT P6SM OVC009
      TEMPO 2010/2012 SCT009
     FM201300 19006KT P6SM SCT009
     FM201700 16006KT P6SM SKC=

USA.gov is the U.S. government's official web portal to all federal, state and local government web resources and services.